www.pogodaiklimat.ru
ПОГОДА в Сиссетоне
Время
(UTC), дата
03:56 11.12
04:56 11.12
05:56 12.12
06:56 12.12
07:56 12.12
08:56 12.12
09:56 12.12
10:56 12.12
11:56 12.12
12:56 12.12
13:56 12.12
14:56 12.12
15:56 12.12
16:56 12.12
17:56 12.12
18:56 12.12
19:56 12.12
20:56 12.12
21:56 12.12
22:56 12.12
23:56 12.12
00:56 12.12
01:56 12.12
02:56 12.12
03:56 12.12
04:56 12.12
05:56 13.12
06:56 13.12
07:56 13.12
08:56 13.12
09:56 13.12
10:56 13.12
11:56 13.12
12:56 13.12
13:56 13.12
14:56 13.12
15:56 13.12
16:56 13.12
17:56 13.12
18:56 13.12
19:56 13.12
20:56 13.12
21:56 13.12
22:56 13.12
23:56 13.12
00:56 13.12
01:56 13.12
02:56 13.12
Ветер
(напр.,м/с)
Видим. Явления Облачность Т
(С)
Тd
(С)
f
(%)
Тe
(С)
Тes
(С)
Комфортность P
(гПа)
Po
(гПа)
Тmin
(С)
Tmax
(С)
R
(мм)
R24
(мм)
S
(см)
ЮВ 5 н/о н/о -15.6 -18.9 76 -25 -25 1027.7 980.0
ЮВ 6 н/о н/о -15.6 -18.9 76 -26 -26 1026.7 979.4 -16.1 -15.6
В 5 н/о н/о -15.6 -18.3 80 -25 -25 1025.8 978.7
ЮВ 6 н/о н/о -15.0 -18.9 72 -25 -25 1024.7 977.8
ЮВ 5 н/о н/о -15.0 -18.3 76 -25 -25 1024.6 977.8
В 5 н/о н/о -14.4 -17.8 75 -24 -24 1024.0 977.1
В 4 н/о н/о -14.4 -17.2 79 -22 -22 1024.4 977.4
В 3 н/о н/о -15.0 -17.2 83 -22 -22 1023.5 976.8 -15.6 -14.4 0.3
В 2 н/о н/о -15.0 -17.2 83 -21 -21 1023.6 976.8
0 н/о н/о -15.0 -17.2 83 -15 -15 1023.0 976.1
0 н/о н/о -14.4 -17.2 79 -14 -14 1022.6 975.8
З 3 н/о н/о -13.9 -16.7 79 -20 -20 1023.8 977.1
С 3 н/о н/о -13.3 -16.7 76 -20 -20 1023.4 976.8
С 3 н/о н/о -12.8 -16.1 76 -20 -20 1022.8 976.1 -15.0 -12.8
С 4 н/о н/о -12.8 -15.6 79 -21 -21 1022.5 975.8
С 3 н/о н/о -12.8 -16.1 76 -20 -20 1022.3 975.8
С 4 н/о н/о -12.2 -15.6 76 -20 -20 1022.1 975.8
С 4 н/о н/о -12.8 -16.1 76 -20 -20 1022.1 975.8
С 2 н/о н/о -12.2 -16.1 73 -18 -18 1022.1 975.8
0 н/о н/о -12.2 -16.1 73 -12 -12 1022.1 975.8 -12.8 -12.2
0 н/о н/о -12.2 -15.6 76 -12 -12 1022.1 975.8
0 н/о н/о -12.2 -15.6 76 -12 -12 1021.7 975.2
ЮВ 3 н/о н/о -11.7 -15.0 76 -18 -18 1021.1 974.8
Ю 3 н/о н/о -11.7 -15.0 76 -18 -18 1020.3 974.2
Ю 4 н/о н/о -11.7 -15.0 76 -19 -19 1019.7 973.5
ЮВ 4 н/о н/о -11.7 -15.0 76 -19 -19 1018.7 972.6 -12.2 -11.7
ЮВ 4 н/о н/о -11.7 -14.4 80 -19 -19 1018.5 972.6
ЮВ 3 н/о н/о -11.1 -14.4 77 -18 -18 1017.7 971.9
ЮВ 4 н/о н/о -11.1 -13.9 80 -18 -18 1017.1 971.3
ЮВ 4 н/о н/о -11.1 -13.9 80 -19 -19 1015.9 970.0
Ю 3 н/о н/о -11.1 -13.3 84 -18 -18 1015.7 970.0
ЮВ 4 н/о н/о -10.6 -13.3 80 -18 -18 1014.8 969.3 -11.7 -10.6
Ю 4 н/о н/о -10.6 -12.8 84 -19 -19 1014.7 969.0
ЮВ 5 н/о н/о -10.6 -12.2 88 -19 -19 1013.8 968.0
ЮВ 4 н/о н/о -10.0 -12.2 84 -18 -18 1013.5 968.0
Ю 6 н/о н/о -10.0 -11.1 92 -19 -19 1013.4 968.0
Ю 4 н/о н/о -9.4 -10.6 91 -17 -17 1013.1 967.7
ЮВ 4 н/о н/о -8.9 -10.0 92 -16 -16 1012.1 966.7 -10.6 -8.9
ЮВ 4 н/о н/о -7.8 -9.4 88 -15 -15 1011.2 966.1
ЮВ 2 н/о н/о -6.1 -8.3 84 -11 -11 1010.9 965.7
СЗ 6 н/о н/о -3.3 -6.1 81 -11 -11 1011.2 966.4
СЗ 10 н/о н/о -4.4 -7.2 81 -14 -14 1012.4 967.4
СЗ 10
{15}
н/о н/о -6.7 -9.4 81 -17 -17 1014.0 968.7
СЗ 11
{15}
н/о н/о -7.8 -11.1 77 -19 -19 1015.2 970.0 -8.9 -2.8
СЗ 11 н/о н/о -8.9 -12.8 73 -20 -20 1016.2 970.6
СЗ 9
{13}
н/о н/о -9.4 -12.8 76 -20 -20 1017.1 971.6
СЗ 12
{16}
н/о н/о -10.0 -13.9 73 -22 -22 1017.0 971.3
СЗ 9 н/о н/о -10.6 -13.9 77 -22 -22 1017.8 972.2
Местоположение метеостанции Sisseton Municipal Airport: широта 45.6689 долгота -96.9914 высота над уровнем моря 354 м.
В архиве по умолчанию представлена погода в Сиссетоне за последние 1-2 суток. Обновление информации о фактической погоде в базе происходит ежечасно! Архивные данные за месяц целиком и за предыдущие месяцы Вы можете получить, выбрав интересующий диапазон дат из раскрывающегося списка и нажав кнопку "Ввод!".
Внимание! Архив погоды МЕТАР в базе сайта по станциям, не включенным в климатический монитор, хранится не более 60 дней. Нет смысла пытаться выбрать более раннюю дату.
*Определитесь, кто Вы:
Внимание! Время в таблицах - всемирное. Для получения местного времени необходимо прибавить поправку, которая равна ч.
Смотрите также архив погоды в соседних городах и на ближайших метеорологических станциях:
Партнеры нашего сайта:      
Пояснения к столбцам:
  • Ветер - указаны скорость ветра в м/с - средняя за 10 мин, порывы в срок и между сроками (в фигурных скобках) и направление, откуда дует ветер: С - северный,
  • СВ - северо-восточный, В - восточный, ЮВ - юго-восточный, Ю - южный, ЮЗ - юго-западный, З - западный, СЗ - северо-западный.
  • Видимость - горизонтальная дальность видимости в метрах или километрах. При видимости от 1 до 10 км при отсутствии осадков обычно наблюдается дымка, при ухудшении видимости до 1 км и менее - туман. В сухую погоду видимость может ухудшаться дымом, пылью или мглою.
  • Явления - указаны атмосферные явления, наблюдавшиеся в срок или в последний час перед сроком; фигурными скобками обозначены явления, наблюдавшиеся между сроками (за 1-3 часа до срока); квадратными скобками обозначены град или гололедные отложения с указанием их диаметра в мм.
  • Облачность - указаны через наклонную черту общая и нижняя облачность в баллах и высота нижней границы облаков в метрах; квадратными скобками обозначены формы облаков: Ci - перистые, Cs - перисто-слоистые, Cc - перисто-кучевые, Ac - высококучевые, As - высокослоистые, Sc - слоисто-кучевые, Ns - слоисто-дождевые, Cu - кучевые, Cb - кучево-дождевые. Подробнее классификацию облаков см. в Атласе облаков (PDF).
  • T - Температура воздуха - температура, измеренная на высоте 2 м над землей.
  • Td - Температура точки росы - температура, при понижении до которой содержащийся в воздухе водяной пар достигнет насыщения.
  • f - Относительная влажность воздуха - влажноcть воздуха, измеренная на высоте 2 м над землей.
  • Te - Эффективная температура - температура, которую ощущает одетый по сезону человек в тени. Характеристика душности погоды. При расчете учитывается влияние влажности воздуха и скорости ветра на теплоощущения человека.
  • Tes - Эффективная температура на солнце - температура, которую ощущает человек, с поправкой на солнечный нагрев. Характеристика знойности погоды. Зависит от высоты солнца над горизонтом, облачности и скорости ветра. Ночью, в пасмурную погоду, а также при ветре 12 м/с и более поправка равна нулю.
  • P - Атмосферное давление - приведенное к уровню моря атмосферное давление.
  • Po - Атмосферное давление - измеренное на уровне метеостанции атмосферное давление.
  • Tmin - Минимальная температура - минимум температуры воздуха на высоте 2 м над землей.
  • Tmax - Максимальная температура - максимум температуры воздуха на высоте 2 м над землей.
  • R - Количество осадков - Количество выпавших осадков за период времени, мм. При наведении курсора мыши на число - период времени, за который выпало указанное количество осадков.
  • R24 - Количество осадков - Количество выпавших осадков за 24 часа, мм.
  • S - Снежный покров - Высота снежного покрова, см. При наведении курсора мыши на число - состояние снежного покрова и степень покрытия местности в баллах.